GFSNW_prec_cthk_036.txt.gz
RH
46 41 36 37 37 34 34 33 32 29 26 26 30 35 40 35 34 28 28 28 33 34 35 40 43 45 39 32 32 29 34 36 36 30 28 26 25 29 32 42 36 50 57 49
47 40 34 35 33 33 33 31 39 32 25 26 29 24 36 32 31 29 25 29 30 36 40 46 45 45 43 33 33 31 30 33 41 34 34 31 25 29 29 34 41 43 52 47
48 40 33 32 30 31 33 33 44 36 26 28 25 27 35 34 27 26 24 27 30 33 40 40 46 44 40 32 30 30 30 31 30 36 28 24 21 24 26 31 46 43 46 40
48 42 36 32 29 30 31 38 38 33 26 24 29 33 33 34 29 27 24 25 30 34 40 44 47 44 39 33 28 26 31 33 32 30 28 25 23 24 26 26 28 37 38 44
49 44 40 34 28 30 36 44 41 33 30 25 29 35 34 30 28 28 28 29 33 36 39 41 46 40 37 34 29 25 30 37 32 28 31 28 25 26 30 30 30 37 45 52
50 47 43 34 29 30 50 53 51 29 33 33 35 32 29 31 35 31 32 34 40 40 40 44 46 44 40 38 33 30 31 36 35 30 35 32 35 30 29 30 34 36 42 48
53 50 46 37 32 40 60 60 54 38 36 35 34 34 36 38 37 36 37 38 41 41 43 45 43 44 43 40 37 30 34 39 38 35 34 27 29 27 28 35 39 41 48 55
56 54 49 42 40 55 62 58 54 46 40 35 35 38 41 43 44 41 42 41 41 44 45 49 47 50 42 43 39 37 33 36 42 38 44 30 28 30 32 35 41 46 50 57
65 55 54 49 46 48 57 42 40 38 42 45 45 38 42 45 45 47 45 44 42 45 51 50 51 50 33 41 37 38 38 37 36 49 37 37 29 30 33 35 43 45 51 59
62 66 54 53 52 49 43 41 40 37 38 46 47 44 45 45 45 48 47 45 47 47 51 56 52 50 42 47 44 44 47 47 48 51 50 39 30 33 37 46 39 46 53 60
58 62 65 58 53 49 43 40 38 39 39 45 45 44 44 42 41 45 45 47 48 51 50 50 51 50 45 42 39 41 42 46 48 51 53 47 31 36 39 33 37 48 55 61
57 53 55 57 54 50 43 41 38 35 37 46 48 48 46 44 44 42 47 42 44 46 49 51 51 47 46 44 42 36 38 34 40 40 39 31 33 36 37 41 49 56 62 69
59 54 50 48 50 50 45 42 41 38 39 44 50 52 52 51 48 49 50 52 50 45 40 44 46 44 43 44 44 39 34 37 42 42 36 37 41 44 46 51 56 63 72 73
64 56 50 46 44 42 41 40 39 38 38 41 48 50 50 50 50 51 49 43 42 42 42 46 45 45 40 41 36 38 32 36 40 43 44 45 48 49 50 55 64 73 75 73
68 65 58 53 47 42 39 38 39 38 37 42 44 44 44 42 43 44 46 47 47 49 51 54 54 49 48 48 46 41 36 37 41 41 38 42 45 50 57 67 72 73 75 75
71 69 66 60 53 49 47 43 40 39 39 39 44 46 45 45 44 42 42 45 47 48 48 51 50 47 46 51 52 36 38 40 41 41 44 47 52 62 71 76 78 79 80 80
74 73 70 64 61 60 55 49 49 47 44 42 49 48 48 47 48 49 50 50 50 51 52 52 51 52 56 58 54 43 42 43 44 49 55 64 70 76 81 84 83 83 82 79
77 76 74 71 67 65 64 61 57 53 50 47 52 52 50 53 56 59 61 62 62 61 64 64 62 61 64 61 50 49 51 54 60 64 67 72 78 81 86 88 87 83 81 78
77 76 74 72 70 68 68 65 62 61 58 57 55 53 54 56 61 64 66 68 70 68 68 69 69 66 62 53 53 53 55 59 66 71 75 78 81 86 89 87 84 82 80 77
75 74 73 72 73 74 71 70 65 62 61 60 58 56 59 59 64 67 68 69 70 69 66 67 65 57 51 54 59 64 65 69 78 80 84 85 85 88 86 86 83 81 70 60
78 73 72 73 74 73 71 70 68 69 67 62 61 58 58 60 63 70 72 72 74 71 66 69 66 65 66 70 72 76 80 86 88 92 93 92 95 90 85 80 71 62 56 48
79 74 78 79 79 78 78 75 73 69 69 65 63 64 72 78 83 83 84 86 86 85 84 87 79 76 78 81 83 86 88 89 90 92 90 83 82 79 71 62 58 52 46 44
97 97 98 97 87 81 79 76 71 72 76 79 83 88 92 94 94 96 97 97 94 92 93 89 85 84 86 88 89 88 86 87 88 83 81 79 73 65 62 56 49 45 43 40
98 99 98 98 95 91 90 86 85 85 86 89 91 93 95 97 99 99 98 98 98 96 92 86 87 89 89 86 85 84 82 80 80 80 79 71 63 58 50 46 44 43 38 36
98 98 98 96 93 93 92 93 92 92 93 93 94 95 97 98 99 98 98 98 97 95 92 92 92 92 90 86 85 84 82 83 80 73 65 58 51 45 43 42 38 36 36 35
93 96 97 97 97 98 98 98 98 97 97 97 96 96 96 95 96 96 98 98 97 96 96 96 95 93 90 87 86 87 84 78 71 63 55 48 45 42 38 35 35 36 37 38
73 82 90 95 94 95 96 97 96 96 97 97 98 97 97 97 98 98 98 97 98 95 92 95 96 94 92 93 93 88 76 67 57 50 46 42 39 37 37 35 33 37 43 49

GFSNW_prec_cthk_042.txt.gz
RH
51 43 44 45 45 47 46 50 51 48 42 38 41 46 47 46 39 32 30 29 30 31 33 37 32 33 34 38 34 36 40 41 45 37 31 31 28 30 30 35 33 46 47 37
48 47 48 45 47 48 45 46 50 45 37 38 41 49 47 46 40 36 32 32 30 32 38 43 42 39 39 40 33 34 37 41 48 39 35 33 31 28 30 30 34 38 42 30
48 48 52 45 48 48 47 47 54 47 39 32 40 48 46 46 44 36 32 32 32 35 38 43 49 49 47 44 38 32 32 38 37 40 31 29 26 25 28 25 39 35 34 26
48 49 53 45 49 49 50 51 49 38 41 38 41 46 47 50 42 36 32 32 32 35 39 44 48 50 47 43 40 36 32 36 36 36 35 28 23 23 24 23 24 28 23 28
55 55 53 47 49 49 51 52 46 37 33 33 42 47 44 48 42 36 31 30 35 34 36 38 48 45 43 38 38 37 35 38 34 35 37 34 29 26 27 25 23 26 27 27
57 56 45 48 48 46 51 53 42 34 35 35 39 42 40 40 39 36 30 28 27 30 33 36 38 41 41 36 35 37 36 39 39 38 38 32 31 25 27 25 22 25 31 26
62 53 46 48 48 45 48 48 47 40 38 33 33 35 35 36 32 29 30 29 29 31 36 39 39 45 45 43 43 38 39 39 38 35 31 27 18 21 23 22 24 26 28 29
64 58 47 48 44 46 50 47 46 44 43 31 30 31 35 35 35 34 34 31 30 33 36 42 46 50 48 49 51 47 42 41 44 38 37 23 17 23 26 26 24 28 30 33
66 53 48 45 41 44 46 48 47 46 43 36 28 33 32 35 37 38 40 40 36 35 39 43 48 51 45 46 49 50 48 45 43 49 35 30 19 22 24 25 33 26 31 36
60 53 49 39 38 42 43 54 70 58 44 38 35 36 32 31 36 42 43 43 42 40 45 50 48 46 43 49 49 55 56 55 50 54 43 32 22 25 27 36 30 29 30 34
59 55 46 37 37 38 48 65 77 63 52 46 44 44 41 37 38 41 42 46 47 47 48 50 50 51 49 47 45 52 51 55 55 53 52 40 25 30 32 30 29 30 34 36
62 62 44 37 37 46 55 78 67 61 55 56 51 47 45 41 37 37 46 45 46 44 48 48 49 52 49 46 47 45 48 40 43 40 37 28 28 30 31 34 36 35 38 42
72 67 47 41 46 65 79 85 67 58 56 58 56 51 48 48 47 48 46 45 42 41 41 44 45 43 45 47 48 43 39 37 39 38 30 32 34 35 37 39 41 42 45 51
70 64 54 45 52 57 69 70 64 54 52 57 59 59 60 57 51 48 45 42 42 41 41 44 46 42 41 42 39 39 36 37 39 41 37 38 37 37 38 40 43 47 53 61
76 68 61 55 53 58 61 62 53 46 41 49 54 52 53 52 52 50 48 47 48 49 50 49 45 41 42 45 46 43 39 40 43 42 36 37 37 38 41 45 50 56 63 72
73 75 70 68 62 57 51 51 50 45 41 41 54 52 55 55 55 55 51 49 48 46 44 47 48 46 47 53 53 36 38 40 42 43 44 45 47 49 51 56 62 71 76 75
68 67 67 66 65 61 53 48 49 43 40 37 46 46 48 50 48 46 46 46 45 46 49 51 51 51 53 56 54 43 46 49 51 52 54 55 57 59 61 65 72 77 78 81
68 63 60 58 55 52 51 49 46 43 39 38 45 47 44 46 48 48 47 46 47 48 50 51 52 55 58 59 52 56 58 59 58 58 58 58 60 65 71 77 81 84 89 95
73 69 64 59 57 55 55 51 49 46 42 42 44 46 51 53 54 55 54 54 57 57 59 60 62 63 64 61 61 61 59 59 60 62 65 70 76 80 81 83 90 95 96 92
77 75 72 73 74 72 67 65 63 62 61 58 59 61 61 60 63 64 62 63 65 63 62 65 65 64 65 64 61 61 63 67 73 78 80 83 84 87 91 94 92 90 87 85
78 77 78 81 80 78 75 76 74 75 74 72 72 71 69 70 70 72 71 70 68 66 63 65 63 61 63 65 68 73 77 82 84 86 88 91 93 94 90 86 84 79 71 68
86 83 85 85 84 84 86 84 82 79 78 76 74 75 74 73 71 71 72 71 71 71 69 71 69 72 77 80 83 84 85 86 88 90 87 84 83 81 80 77 72 69 64 59
84 86 86 84 87 87 85 84 80 77 73 73 71 71 72 71 72 73 74 76 77 78 83 84 83 83 85 89 88 87 86 83 82 82 82 82 79 76 71 67 65 60 53 50
80 80 82 82 87 86 82 76 71 68 71 73 73 74 75 77 81 85 84 87 90 91 89 86 89 89 90 91 88 87 83 82 82 82 81 78 74 69 66 61 56 52 50 48
95 92 92 89 87 88 86 84 83 85 91 93 94 94 92 93 94 96 98 98 96 92 89 92 93 93 93 91 87 84 83 82 81 80 78 76 71 64 56 51 48 45 42 39
98 94 93 91 91 92 93 92 94 96 97 97 98 98 98 98 97 96 97 97 94 93 94 96 97 95 93 87 85 85 84 81 80 78 74 67 58 49 45 41 39 38 36 32
97 96 97 95 94 95 96 96 96 96 97 97 97 95 94 94 94 93 93 91 93 95 95 96 96 94 91 90 88 89 92 82 74 69 60 49 41 38 36 31 29 30 32 33

GFSNW_prec_cthk_045.txt.gz
RH
96 60 57 58 54 48 50 44 47 57 63 65 54 38 32 42 44 36 28 26 27 25 28 30 29 28 26 28 27 30 34 41 44 41 35 32 32 33 32 33 32 41 37 25
96 61 62 61 53 50 49 46 54 64 61 61 47 37 36 47 45 35 30 32 32 33 35 37 38 35 33 33 34 34 36 42 46 40 36 34 32 30 29 28 32 35 40 21
82 66 64 57 51 56 53 52 58 69 64 54 39 37 45 48 46 39 35 35 35 36 38 40 47 42 38 37 39 35 35 39 39 38 33 35 33 33 33 28 33 28 25 20
72 68 63 54 55 57 56 53 53 56 63 52 37 40 51 50 48 42 39 37 34 34 39 40 47 48 46 46 47 42 35 35 36 38 38 34 28 26 29 26 24 27 20 21
72 68 58 55 59 59 61 53 49 51 54 42 37 46 53 52 49 45 39 38 36 34 37 33 43 45 46 42 46 44 38 39 36 38 38 35 32 28 26 26 25 25 24 21
72 62 58 58 61 57 61 55 45 45 55 42 40 46 51 49 55 45 40 36 35 34 36 35 37 39 39 40 41 43 39 40 38 38 37 33 33 26 26 26 25 23 25 18
66 60 58 60 60 57 58 55 47 47 49 43 38 45 52 51 55 49 43 34 28 30 33 32 35 38 41 43 41 37 37 38 38 38 34 30 20 21 20 22 22 22 23 24
62 57 59 62 60 61 61 56 51 49 47 41 39 44 54 56 52 50 43 34 30 33 34 39 42 47 46 50 50 45 40 39 44 42 34 25 19 21 24 24 20 20 22 28
59 58 60 61 59 62 68 56 56 52 45 39 37 41 44 56 53 48 41 34 34 35 38 40 45 48 44 46 51 51 49 46 46 48 36 34 21 22 25 25 28 22 25 31
65 65 59 57 61 62 67 54 58 51 49 44 37 37 37 45 45 45 40 38 39 37 40 46 46 43 40 44 45 54 56 57 54 53 48 37 27 28 28 32 26 26 27 30
68 62 57 58 60 65 62 54 56 48 53 49 40 33 33 36 36 39 39 42 43 44 47 51 46 47 44 43 42 48 48 55 57 54 52 45 28 31 33 29 28 29 32 34
68 65 61 58 60 61 55 55 57 59 66 50 42 39 39 34 33 33 40 41 41 43 47 45 45 49 49 44 44 43 43 40 43 40 36 30 29 30 31 33 35 37 40 42
71 67 61 57 54 52 53 56 66 74 83 58 52 52 52 48 45 44 39 43 45 43 40 43 44 44 42 45 43 41 39 39 38 37 31 32 32 33 34 38 41 42 44 46
73 65 59 48 46 50 56 72 84 86 78 76 63 61 57 51 47 43 45 44 45 42 41 42 44 41 40 42 40 41 37 36 37 38 36 37 35 38 39 40 42 44 47 53
76 68 56 52 52 53 58 72 74 78 68 70 73 62 59 57 55 52 50 48 44 41 43 47 48 46 47 48 45 41 38 40 44 44 39 40 41 43 45 47 51 54 59 64
80 65 57 58 60 61 64 75 74 65 62 59 73 74 72 73 66 57 53 50 47 48 50 54 51 44 44 52 54 40 41 43 44 45 49 51 53 54 56 59 62 64 67 68
83 75 68 63 62 65 68 65 64 60 55 50 63 66 66 67 66 62 58 55 52 49 50 49 50 50 52 55 53 47 49 51 54 56 58 60 62 64 64 65 68 70 76 83
82 78 71 69 66 67 69 66 62 59 52 47 53 54 56 57 57 54 50 47 46 48 50 51 51 55 57 58 54 56 59 61 63 63 63 64 65 67 71 76 82 86 92 96
83 82 75 70 65 63 64 59 55 50 45 44 44 46 50 49 49 48 49 49 52 51 54 56 57 60 61 60 62 62 63 65 67 68 68 70 75 80 84 87 92 96 96 92
70 68 65 66 67 63 59 55 50 46 45 43 48 50 52 52 55 56 56 58 60 60 60 63 64 65 65 63 64 64 65 65 69 74 82 86 89 92 94 93 91 88 85 81
74 72 75 72 66 60 58 60 58 59 60 61 62 64 65 68 68 69 69 69 69 69 67 70 68 65 65 65 68 72 77 82 85 89 92 92 91 89 87 86 82 76 72 67
79 78 77 75 75 75 78 79 77 75 78 76 77 77 75 75 75 75 76 75 73 73 71 71 68 67 70 76 82 86 89 91 91 89 87 84 82 80 76 74 71 65 58 55
90 87 86 86 90 94 91 86 83 81 80 81 81 80 77 75 73 72 73 71 72 70 71 69 67 72 83 90 92 90 88 88 86 84 83 80 76 72 66 62 59 56 54 53
93 96 97 92 92 89 86 85 83 82 81 78 75 71 70 72 73 75 76 76 77 78 77 76 83 91 94 92 90 88 86 84 82 79 77 74 71 67 63 59 56 53 48 44
88 87 90 88 85 84 82 82 81 80 80 79 81 83 86 90 91 93 94 94 90 85 86 90 93 96 96 94 90 87 86 82 80 77 76 74 70 64 58 51 48 43 38 35
95 94 96 91 89 90 89 88 86 89 90 94 93 94 96 97 97 96 96 96 93 93 96 96 96 96 95 91 89 87 85 84 83 81 75 69 63 53 48 41 37 33 30 27
95 95 94 94 95 96 94 93 93 94 95 97 98 97 97 96 96 95 94 92 91 93 94 95 94 91 87 88 87 91 91 86 80 76 69 58 49 40 37 32 30 29 30 29

GFSNW_prec_cthk_048.txt.gz
RH
52 72 73 59 42 50 54 55 48 38 46 65 60 60 42 35 38 41 28 25 24 23 25 27 25 24 25 26 26 27 26 29 34 34 34 33 30 30 30 31 30 31 29 20
61 74 81 63 47 52 55 56 57 48 52 65 61 59 39 37 42 39 31 27 25 25 25 29 28 25 24 25 25 26 26 31 40 38 36 37 32 30 31 30 29 29 38 19
69 80 98 65 54 60 64 62 57 55 65 61 62 56 37 37 48 43 34 29 33 31 31 32 37 35 31 30 31 31 32 33 35 37 35 34 33 32 29 25 29 23 21 15
68 77 89 60 70 69 66 65 55 46 65 61 61 54 35 41 51 45 35 30 32 33 35 35 39 42 38 35 35 38 37 36 34 35 35 34 31 30 29 28 24 25 17 17
90 86 84 80 76 77 71 65 57 52 62 60 60 50 39 46 54 46 36 33 33 32 31 29 34 39 43 43 46 45 42 40 36 36 35 34 33 29 26 26 23 22 21 20
97 96 92 86 80 74 71 63 51 47 61 61 57 43 39 48 55 51 41 37 36 36 36 34 34 40 42 42 42 44 44 42 39 35 34 32 38 27 25 24 24 23 24 21
97 94 90 84 80 68 67 64 51 47 55 66 54 41 43 52 57 54 46 42 39 39 36 36 37 37 39 39 40 42 43 41 41 40 36 50 21 22 22 23 22 21 21 21
98 93 90 82 73 69 68 64 54 46 56 61 55 42 45 56 58 63 52 43 38 32 31 35 37 38 41 41 41 41 37 37 45 53 34 27 22 22 22 22 18 18 18 21
94 91 80 75 69 70 69 61 61 49 50 59 46 43 42 57 59 66 56 49 42 34 33 39 46 45 40 44 49 48 45 42 44 52 57 59 25 27 28 27 27 22 22 25
91 80 72 70 69 69 70 69 64 57 51 54 50 40 42 52 59 62 56 51 44 35 39 51 51 44 36 39 44 52 55 58 60 53 61 39 31 30 29 31 27 25 25 28
79 75 72 70 71 68 71 67 72 63 57 59 47 41 39 44 59 61 57 53 46 40 47 52 46 49 38 38 36 42 45 54 58 55 61 53 28 30 32 30 28 29 32 35
75 73 71 72 71 69 79 84 74 61 60 61 49 42 37 37 49 55 55 49 40 37 43 46 47 53 48 42 43 39 40 37 38 37 36 30 29 30 31 32 33 35 38 41
73 70 69 69 65 76 84 84 72 62 65 65 58 50 39 37 40 44 43 40 37 38 39 43 47 53 43 51 42 38 35 36 36 35 31 30 31 32 33 35 38 40 43 45
70 70 66 63 65 76 80 74 64 62 65 70 62 53 45 44 38 38 37 36 42 43 45 47 47 47 40 40 38 37 36 37 37 34 32 34 34 37 40 41 43 46 48 51
68 63 63 64 67 75 72 66 67 76 84 83 69 56 56 55 51 49 48 47 47 47 48 49 48 43 44 44 44 42 38 35 38 41 37 39 42 45 47 51 54 56 58 61
70 67 65 65 69 68 74 67 66 73 84 89 84 73 69 67 60 52 50 51 49 49 52 51 50 50 50 53 43 40 41 41 41 43 46 50 53 56 58 60 62 64 65 66
69 66 63 57 59 66 66 63 73 83 84 82 92 88 81 68 59 59 60 58 56 57 58 59 56 51 47 52 49 47 45 47 50 53 57 60 62 64 64 65 66 70 74 82
75 71 74 79 80 75 69 71 78 77 71 68 79 85 86 81 80 78 76 76 76 65 60 56 55 55 55 57 50 51 54 57 60 62 63 65 66 67 69 74 77 83 90 93
85 82 80 81 82 77 73 74 73 69 64 63 59 65 67 73 70 71 71 66 62 55 55 54 54 56 56 55 56 59 61 64 65 67 69 70 72 76 82 86 92 92 90 89
77 74 70 73 75 72 72 73 69 66 62 58 61 60 59 57 58 56 52 52 55 56 56 59 60 61 61 63 66 68 69 69 71 74 79 83 85 86 88 87 85 86 87 82
73 67 71 77 77 73 70 70 69 66 62 57 55 52 49 51 55 56 56 59 61 64 62 66 67 68 72 71 70 70 74 79 83 85 89 91 91 88 86 83 79 74 70 66
80 79 79 75 72 73 74 75 71 65 65 60 58 58 60 63 65 66 70 73 73 75 72 76 72 72 69 68 69 74 81 85 87 88 90 89 84 80 76 71 67 63 59 56
78 78 78 80 81 81 78 71 67 66 67 70 74 76 77 77 76 78 79 78 79 73 77 70 66 66 70 77 84 86 85 86 88 87 83 80 76 70 66 64 60 56 53 51
87 89 91 89 89 85 82 79 80 81 81 81 82 82 81 81 79 78 78 77 75 76 73 70 72 81 87 89 90 88 87 86 85 82 77 74 72 68 65 62 57 52 48 44
97 96 98 95 87 90 88 88 88 86 85 83 81 80 78 79 80 82 84 86 85 82 82 89 92 94 95 94 91 87 85 82 79 75 75 73 70 65 59 53 48 44 41 34
96 93 91 89 90 88 86 86 85 82 81 80 79 82 85 89 92 93 94 93 89 90 92 96 96 95 95 91 87 86 81 78 78 79 72 68 64 58 51 45 41 34 31 30
96 92 93 93 92 91 92 91 90 88 88 90 93 94 96 96 96 96 95 96 95 96 96 95 94 93 91 89 86 82 83 80 73 72 71 70 60 47 36 34 34 34 34 30

GFSNW_prec_cthk_051.txt.gz
RH
29 25 27 47 56 60 41 47 52 50 37 40 51 50 46 48 45 38 32 33 36 34 32 30 33 30 37 29 29 30 35 37 36 35 33 26 30 32 32 35 35 33 34 25
30 28 32 49 66 60 45 53 57 62 41 41 51 49 53 54 45 35 36 32 33 31 31 32 30 29 35 28 27 30 33 27 32 41 31 25 27 27 26 32 35 35 39 25
34 30 38 60 69 64 50 56 66 65 54 44 52 54 57 55 44 37 43 36 35 30 25 29 34 30 28 24 25 26 26 24 33 40 46 47 41 32 32 32 36 29 24 25
35 29 50 64 75 65 55 59 52 54 49 43 61 61 58 57 41 33 43 43 37 29 30 31 34 36 34 31 29 30 32 32 32 32 36 40 37 34 33 32 28 31 25 25
41 34 57 62 81 63 63 60 52 55 44 44 63 69 63 55 39 36 45 43 34 35 37 34 37 34 38 38 34 34 35 40 39 39 36 33 33 30 29 28 28 27 25 24
41 53 57 89 95 67 62 63 64 55 52 51 58 59 63 52 41 47 52 41 40 42 47 40 36 38 40 44 46 47 49 46 46 41 35 32 37 26 24 26 25 26 27 25
42 61 77 86 73 70 66 74 78 71 64 57 51 57 66 53 46 57 52 44 53 45 36 36 34 34 36 41 45 47 44 48 51 46 43 54 24 25 24 24 24 24 25 24
57 87 97 94 82 86 80 78 82 73 72 65 64 58 59 54 50 66 60 50 44 42 41 40 39 41 41 36 36 37 40 47 49 58 38 31 27 24 25 25 22 21 22 20
66 95 98 88 92 90 85 87 80 83 70 62 54 60 58 55 52 65 61 55 49 43 42 39 37 39 31 42 40 36 36 42 44 48 59 63 33 30 28 28 29 27 24 24
84 86 91 96 92 91 94 94 86 78 61 57 64 61 54 48 54 61 60 56 49 44 46 49 47 42 35 42 45 53 52 54 55 53 64 46 35 34 30 32 35 29 25 28
90 89 96 96 91 84 88 91 87 76 70 59 61 67 59 52 59 59 58 62 54 51 51 51 44 47 39 36 34 40 45 53 59 59 66 56 32 29 31 35 29 28 29 34
84 83 93 89 89 82 89 94 85 79 75 59 54 62 54 55 55 63 58 58 54 50 52 48 47 48 46 40 44 36 43 40 45 40 42 36 28 32 33 31 31 35 34 38
96 87 88 86 80 81 86 89 78 77 74 67 61 64 54 48 44 49 62 60 58 56 51 47 45 51 42 51 44 42 37 36 37 35 31 33 32 32 33 34 35 36 39 41
95 92 85 81 80 84 90 88 82 81 72 72 69 63 60 49 41 42 52 61 59 57 51 49 45 50 43 46 42 40 40 38 36 36 33 34 37 37 38 39 40 42 44 47
89 83 81 79 76 86 90 84 80 77 74 71 70 68 61 51 43 41 47 55 56 52 52 52 52 47 48 45 42 42 38 39 42 42 39 39 44 42 43 47 50 52 54 57
81 78 76 80 79 91 96 93 83 78 75 74 78 74 64 53 46 45 45 50 51 49 53 56 53 48 51 54 46 44 42 39 40 42 43 44 46 49 53 56 58 60 61 64
79 78 76 80 90 97 91 88 83 81 83 80 91 77 67 59 61 57 53 53 54 55 59 59 57 54 52 54 53 45 44 44 45 45 47 51 55 58 59 60 63 67 68 70
78 77 79 82 93 95 88 82 76 78 78 87 98 86 75 69 72 69 64 65 65 64 63 64 62 58 58 56 50 48 47 48 50 52 55 57 60 64 69 72 72 75 80 82
81 81 83 88 95 90 84 78 74 75 79 80 88 91 87 83 84 80 76 71 75 77 75 73 71 67 62 56 50 51 53 57 57 58 62 66 71 73 75 78 83 84 85 87
84 86 90 91 88 83 82 82 81 81 74 73 78 88 90 91 89 87 85 86 83 76 73 70 67 62 54 52 55 58 62 66 68 71 73 76 79 81 84 84 87 88 88 83
85 82 83 87 85 82 86 84 86 81 77 72 74 72 74 76 80 79 76 73 69 68 62 62 60 57 58 63 66 68 72 73 74 77 79 81 83 83 83 84 81 78 74 67
84 83 91 91 87 88 85 83 81 76 75 71 72 70 66 65 64 63 63 61 61 66 60 65 62 67 72 74 74 73 72 73 75 77 80 82 82 82 80 79 73 66 60 56
77 80 81 83 85 90 82 84 76 70 68 68 62 61 59 58 58 61 65 68 70 66 74 72 72 74 72 71 69 70 75 79 81 81 81 82 79 73 69 66 61 58 55 49
78 80 87 88 89 90 85 80 76 72 71 67 63 63 65 68 73 76 80 83 81 82 80 73 70 72 75 78 82 86 87 86 86 85 81 75 71 67 64 60 54 48 44 40
92 92 91 88 85 83 82 79 76 74 75 75 75 78 80 85 86 87 86 86 84 78 75 76 81 86 90 91 88 87 85 84 83 76 73 71 66 61 55 51 47 44 41 35
95 92 93 89 88 90 88 88 86 86 86 84 83 84 85 86 86 85 83 83 79 83 86 90 94 96 96 92 90 88 86 82 80 75 70 63 59 56 55 54 47 37 31 29
98 97 97 97 98 97 95 92 90 90 88 87 84 83 86 83 84 86 85 89 91 91 95 98 98 96 93 92 89 85 80 76 76 70 64 60 60 58 46 40 36 33 35 37

GFSNW_prec_cthk_054.txt.gz
RH
40 37 34 25 24 35 56 54 48 39 39 52 41 40 40 41 46 45 45 38 38 42 43 42 34 31 30 28 29 28 25 36 39 40 39 31 33 41 40 47 35 40 42 33
50 42 34 24 25 45 63 54 54 63 50 45 37 37 41 42 46 50 48 40 36 37 45 45 39 42 36 35 30 29 34 35 41 36 46 36 29 20 25 33 43 38 56 35
54 48 37 25 30 49 62 64 60 71 65 38 35 38 41 44 45 44 49 42 36 37 42 49 41 40 38 32 31 27 30 36 33 38 33 50 51 44 32 37 49 36 34 30
61 52 42 27 34 56 69 64 47 52 65 54 39 43 39 42 48 44 50 49 45 33 37 40 40 41 38 31 25 23 25 26 25 26 34 44 43 47 44 39 36 39 33 32
65 55 41 30 39 70 75 65 45 49 54 57 48 43 45 50 56 47 51 55 47 36 40 34 40 43 42 33 31 28 28 32 36 40 37 39 37 36 36 32 31 32 31 30
73 55 42 31 50 77 67 57 48 53 49 53 46 41 52 51 59 48 49 52 52 40 45 51 49 47 49 43 42 38 38 39 47 46 40 37 41 27 25 23 24 29 30 29
68 54 43 35 67 64 55 67 64 68 59 51 42 49 53 52 54 51 65 56 49 45 53 56 48 46 47 42 43 45 51 53 57 58 50 56 29 27 25 25 25 25 28 29
66 55 43 43 60 72 70 74 77 73 69 55 46 48 53 60 63 53 68 54 58 59 49 57 55 45 41 37 35 41 44 51 58 66 51 37 32 30 27 27 27 27 25 26
65 54 43 42 81 82 82 76 72 85 74 60 47 50 61 61 65 65 86 55 61 62 58 52 48 53 35 40 37 33 35 40 49 56 66 61 36 33 30 29 35 30 30 30
62 51 42 58 74 75 80 85 77 76 82 71 61 48 50 66 68 71 73 60 60 59 57 59 54 42 33 44 52 52 47 52 57 54 62 50 40 36 36 39 42 35 31 27
59 49 48 77 80 87 80 75 86 98 91 79 72 60 58 60 70 79 62 67 64 56 55 56 52 53 38 35 39 46 47 54 59 60 69 64 37 35 35 40 36 32 30 32
58 50 55 87 87 78 84 83 90 89 96 85 79 70 65 65 75 70 63 56 52 46 49 51 53 55 52 42 43 35 44 41 48 46 47 38 33 35 34 33 32 35 35 36
56 66 72 81 93 92 93 91 94 99 89 87 79 70 65 66 72 80 62 65 61 52 47 51 56 58 48 51 42 42 41 39 42 41 33 38 36 35 37 37 35 36 37 38
61 81 91 90 91 90 91 92 91 92 90 87 81 71 68 65 68 75 68 60 59 60 61 56 54 57 47 47 40 42 42 41 38 36 35 38 43 41 41 41 39 40 42 45
90 89 93 90 92 94 98 95 81 92 93 84 78 62 61 66 62 62 66 58 64 67 68 61 60 54 53 47 43 42 40 39 42 45 41 42 48 46 44 44 45 46 48 49
95 98 98 97 95 98 99 99 97 92 94 80 84 73 64 64 66 63 65 56 58 66 69 66 59 60 57 58 53 44 42 41 43 46 44 45 47 46 46 47 50 52 54 57
98 97 97 97 98 99 98 91 84 79 86 81 82 77 72 69 70 67 68 58 57 63 67 68 64 62 60 57 58 49 47 46 45 44 46 47 48 48 51 54 56 60 65 68
95 95 96 97 97 99 95 95 86 82 82 81 87 83 77 77 77 73 68 63 59 63 63 63 63 63 63 63 55 52 50 49 47 46 48 52 54 57 59 64 67 70 71 75
96 96 95 99 99 97 92 84 88 87 84 86 83 91 89 81 77 70 72 67 65 62 64 65 67 71 68 62 56 56 56 55 54 52 54 58 61 66 69 72 74 76 78 77
98 98 98 98 97 95 95 97 95 91 83 75 81 89 97 84 77 75 76 74 75 76 74 75 78 74 67 66 64 63 62 62 59 61 65 69 72 75 75 75 77 77 78 77
94 95 97 96 96 96 95 86 87 84 77 76 79 93 98 89 83 80 85 88 89 84 77 80 77 78 73 69 64 63 63 64 68 71 74 76 76 75 75 76 77 76 71 68
87 84 92 93 93 92 93 89 83 82 85 82 84 88 90 92 91 94 97 91 90 88 78 83 73 71 65 64 65 67 70 73 76 77 75 74 76 76 79 79 73 69 64 58
87 87 87 86 85 90 86 86 91 83 81 82 80 82 83 87 84 87 88 87 86 73 75 67 66 65 68 73 74 74 73 72 71 72 77 82 85 79 73 68 66 61 56 49
86 89 93 92 92 89 83 83 83 80 78 78 78 79 78 75 74 70 68 71 68 71 70 68 73 78 77 74 72 73 75 76 80 84 79 77 73 71 68 65 60 51 44 37
93 96 98 95 92 87 88 88 84 84 80 77 75 74 71 70 70 71 73 78 76 73 77 81 80 78 77 79 81 82 84 85 85 80 76 75 73 68 61 54 49 44 40 37
93 90 93 93 93 91 90 90 86 84 82 79 75 75 77 78 81 82 84 83 81 84 84 83 82 82 83 84 88 88 88 87 83 77 77 72 64 59 54 50 47 38 31 29
97 95 92 93 93 94 93 91 90 89 87 87 86 87 90 89 91 89 88 90 90 88 85 87 90 93 93 93 92 92 91 87 82 78 71 64 58 54 51 49 44 35 34 35

GFSNW_prec_cthk_057.txt.gz
RH
43 36 33 39 29 23 42 57 63 38 58 53 52 55 42 38 31 44 48 41 40 38 31 37 39 43 39 36 46 53 48 49 56 63 42 44 34 32 41 51 37 42 50 41
50 45 39 38 34 25 41 63 63 59 45 58 53 47 40 36 33 46 45 41 40 38 35 43 47 46 43 37 43 40 40 38 40 50 52 44 42 40 32 39 46 42 54 43
54 49 51 45 36 33 49 52 74 66 57 39 50 49 38 33 30 48 48 47 43 40 38 38 49 54 44 40 38 38 32 32 34 38 33 31 44 41 43 40 50 42 43 36
60 53 55 51 44 38 50 55 59 58 66 55 46 43 37 36 35 48 48 50 47 39 36 38 48 59 47 45 37 33 32 31 32 29 27 32 40 43 46 52 47 52 43 40
55 61 61 58 48 43 56 61 48 56 58 60 51 44 38 36 31 49 49 51 45 40 34 36 44 51 48 43 38 30 26 29 24 29 28 33 34 38 35 44 41 38 35 35
50 62 65 63 56 44 57 55 47 56 57 64 65 52 45 32 31 42 46 47 47 48 36 33 42 44 42 43 43 31 30 31 36 39 34 35 40 30 32 27 28 36 31 30
52 70 70 71 56 35 48 52 62 65 58 62 56 51 42 35 36 53 52 47 49 54 48 40 48 42 48 53 54 41 40 43 52 56 50 48 33 30 28 28 29 29 30 30
60 80 74 73 46 41 58 67 73 66 77 55 54 52 44 44 42 53 68 61 51 56 52 53 64 65 61 59 59 42 41 58 62 60 59 43 35 32 30 30 33 29 29 31
78 87 75 70 44 49 60 68 63 76 63 57 47 39 40 47 54 65 67 60 54 68 64 60 72 74 57 51 44 36 40 45 52 61 58 52 39 34 32 32 40 33 32 34
93 88 83 60 47 56 67 71 76 69 82 64 59 44 35 46 57 62 69 69 66 79 68 68 71 64 52 50 47 46 49 52 55 60 57 46 38 36 37 44 44 38 35 34
98 87 73 53 52 64 69 74 78 77 77 77 67 58 46 43 52 65 64 64 65 81 80 78 64 56 47 42 47 50 46 51 55 61 62 54 38 36 39 42 37 35 34 33
87 72 61 48 46 68 69 80 78 81 90 88 78 69 54 50 56 65 63 53 54 70 72 71 66 62 53 41 46 42 50 42 46 46 47 38 35 34 33 34 34 35 34 34
73 61 52 45 44 67 75 84 81 75 86 90 85 80 62 59 59 59 61 66 68 70 60 60 57 57 50 52 48 37 38 39 45 47 42 41 38 35 35 36 37 37 36 35
64 52 47 42 60 72 72 86 81 79 79 80 79 88 72 70 66 65 64 70 81 69 60 56 55 56 48 50 43 41 41 42 45 47 46 43 42 41 41 40 39 37 37 39
56 51 47 47 68 71 92 94 90 98 98 97 95 87 85 71 73 63 59 62 95 70 66 61 62 57 53 52 51 49 44 42 44 46 42 42 46 46 44 42 43 42 42 44
51 51 50 71 74 86 98 99 89 85 90 99 96 94 84 81 77 73 72 63 87 82 75 72 66 69 60 65 65 53 49 44 39 43 43 44 48 49 48 47 45 46 49 52
60 53 63 84 91 86 96 92 99 97 96 94 88 87 84 80 81 76 77 74 74 73 78 76 74 72 69 71 70 59 58 52 48 48 48 49 48 47 47 48 51 55 58 62
72 85 88 85 98 97 91 87 97 96 90 95 90 84 80 75 72 74 72 73 73 72 75 71 71 76 77 76 69 65 63 57 52 51 48 47 50 52 57 60 60 62 65 67
87 95 99 94 90 97 96 97 89 78 89 86 83 82 85 77 73 72 71 72 75 73 78 75 69 75 78 73 71 69 65 57 55 55 55 56 59 66 66 65 66 67 72 74
95 96 98 98 98 97 97 96 90 83 73 74 79 81 86 82 80 77 74 72 77 77 76 75 74 73 71 71 71 73 66 58 56 56 61 66 70 71 70 71 72 74 73 72
96 98 98 98 97 96 93 89 86 83 80 77 79 83 82 88 90 87 83 84 82 82 78 80 76 74 72 77 81 80 74 68 63 65 70 74 72 71 74 75 75 75 70 67
96 92 93 93 96 97 89 90 88 86 82 74 74 79 82 88 93 95 93 88 85 90 86 89 87 81 83 82 82 76 72 70 72 75 76 74 73 75 76 78 75 71 68 65
88 89 92 96 96 95 91 93 85 80 77 74 77 88 93 98 95 97 97 92 94 88 90 90 88 83 83 78 74 74 75 78 77 74 74 75 78 81 76 74 72 69 65 60
86 92 91 92 96 93 91 87 80 78 78 78 85 91 92 93 92 94 93 95 93 94 93 87 82 78 76 77 78 80 79 77 78 80 81 84 80 76 76 74 71 67 59 50
86 89 96 95 95 89 84 83 81 82 81 82 84 84 83 86 86 85 84 86 84 82 79 75 76 77 81 84 82 80 79 80 82 81 80 79 78 78 76 71 65 58 53 44
89 86 88 88 85 85 85 87 87 87 86 84 82 83 82 82 80 79 77 76 75 76 81 85 87 87 85 84 84 84 87 88 83 84 83 83 81 76 72 66 59 54 44 40
93 93 93 94 91 90 91 91 89 89 91 93 86 82 84 81 81 80 81 83 88 91 92 94 91 87 88 89 90 93 94 88 87 87 87 83 79 73 67 62 55 50 46 41

GFSNW_prec_cthk_060.txt.gz
RH
44 43 35 39 39 39 33 39 52 48 54 74 58 55 53 48 29 45 50 48 47 37 33 32 33 33 31 27 32 43 50 52 53 48 50 50 50 37 42 54 48 53 50 39
44 42 32 45 39 44 36 41 53 58 48 69 59 50 50 41 38 45 46 50 48 41 37 35 34 33 36 33 35 39 50 60 65 56 51 46 43 41 45 50 51 46 55 43
43 41 46 51 48 52 39 50 59 67 60 51 57 53 44 45 35 40 44 51 52 45 40 38 37 38 42 38 34 44 51 53 52 53 38 42 41 42 46 50 54 45 47 38
45 42 53 54 52 54 44 56 57 44 56 51 56 53 48 48 34 37 41 52 54 51 43 40 42 40 48 49 38 40 49 47 42 37 32 33 36 37 37 37 46 50 43 41
52 48 59 59 59 63 55 62 57 51 47 48 52 54 48 45 32 29 33 46 52 49 45 40 46 44 46 49 44 37 41 44 42 38 36 33 32 31 34 34 41 42 44 43
55 55 62 62 63 71 60 57 52 56 42 50 60 51 41 37 41 28 30 49 54 48 42 41 44 44 41 50 48 41 42 48 45 39 33 30 37 26 27 31 33 36 37 40
58 59 65 63 70 68 51 50 59 57 55 54 56 54 45 38 36 32 28 41 55 44 45 47 47 46 49 49 47 37 40 44 43 48 38 46 29 25 26 28 30 31 32 32
65 63 64 64 68 71 54 61 64 63 57 51 58 61 54 45 31 33 29 48 51 52 58 56 56 55 56 55 48 45 45 50 51 54 57 47 37 32 31 33 36 36 35 34
69 60 56 72 71 71 58 67 66 66 67 51 49 62 56 50 43 40 44 52 62 60 63 69 66 66 54 56 47 55 54 58 50 61 62 59 35 29 31 35 44 37 37 38
67 57 56 71 75 71 57 73 64 74 60 67 48 53 53 47 51 50 46 50 59 59 65 77 71 67 56 63 59 57 61 59 54 59 54 47 34 32 34 40 39 40 41 41
66 53 71 78 68 63 59 70 73 65 67 70 61 57 46 39 49 49 45 59 62 70 86 83 83 70 58 62 57 54 49 50 56 59 56 51 33 32 35 38 42 43 39 36
52 54 79 87 78 66 55 69 75 78 80 78 75 72 52 42 31 39 53 53 59 69 76 74 86 84 69 60 65 53 51 38 40 41 40 34 33 32 35 35 34 35 35 36
60 78 94 85 70 65 49 66 72 70 74 65 71 77 64 45 38 42 57 63 65 68 69 79 81 80 70 66 58 50 42 38 38 39 38 38 38 37 36 35 35 36 37 39
93 96 91 81 63 52 55 66 85 79 89 81 83 86 71 55 44 46 48 67 73 72 71 69 69 76 69 65 54 47 39 39 42 49 47 44 43 39 38 38 39 40 40 37
98 96 85 67 56 55 56 85 85 77 70 76 86 86 77 68 55 55 68 65 67 82 72 75 75 75 68 61 56 52 44 41 46 49 43 42 45 44 43 42 44 44 42 42
85 81 65 55 52 56 62 94 97 92 81 86 92 86 84 83 73 68 70 88 84 78 74 80 79 79 66 66 66 56 51 48 48 51 48 46 47 47 48 49 49 48 46 45
68 62 55 55 53 54 67 89 93 81 69 77 86 81 79 91 81 82 85 76 73 90 90 82 94 86 72 67 65 57 58 55 55 55 53 56 53 53 55 54 53 50 50 56
59 56 54 55 73 84 92 98 95 88 91 98 98 96 95 94 90 92 92 90 86 82 81 80 93 89 80 74 65 66 70 69 68 65 61 60 60 60 58 56 55 58 63 68
59 56 64 68 69 92 87 95 98 97 99 97 91 97 95 92 88 87 85 82 87 90 91 95 91 88 82 74 72 74 73 72 76 75 71 67 64 62 61 61 63 68 72 72
64 72 71 77 88 97 93 96 98 97 92 93 88 83 83 85 87 88 88 88 87 85 83 80 78 78 75 73 74 74 71 72 73 78 79 73 68 65 65 70 75 75 74 74
79 83 88 92 94 97 98 98 99 95 89 84 83 79 75 75 74 79 80 82 81 81 79 82 80 74 71 74 76 75 75 77 78 81 80 76 69 68 75 80 81 79 76 72
78 80 83 96 97 99 99 99 95 83 77 78 77 79 76 77 76 81 85 86 84 81 79 80 78 73 76 78 79 80 79 84 89 84 78 74 76 81 83 82 80 80 76 72
98 94 96 96 98 98 96 91 88 83 77 76 76 79 79 80 80 87 87 89 89 83 87 84 79 81 83 86 90 94 96 92 85 81 80 82 84 83 84 85 84 77 71 69
95 97 98 98 95 97 95 89 81 76 74 73 74 77 82 85 88 93 98 96 95 95 91 82 81 83 91 95 94 90 89 87 86 86 86 87 89 86 83 78 75 74 73 70
83 87 94 94 91 89 90 86 81 75 72 73 76 79 83 91 96 97 96 95 96 89 87 89 86 88 88 86 87 88 90 90 90 90 89 90 89 83 82 82 79 76 73 72
82 86 92 90 87 88 87 85 78 76 78 79 78 83 82 90 86 85 86 83 84 86 87 86 85 87 89 90 92 92 92 92 92 92 90 85 85 85 84 81 79 78 77 67
88 90 87 90 88 87 87 85 85 84 82 86 84 82 87 84 83 84 84 85 84 85 85 89 94 95 97 94 91 92 93 93 87 87 89 89 88 86 84 83 83 80 72 67

GFSNW_prec_cthk_063.txt.gz
RH
51 46 48 49 43 46 45 46 43 36 29 59 67 60 54 49 37 41 50 55 50 38 31 32 31 30 30 32 33 33 33 37 38 33 43 46 50 51 54 51 45 50 52 43
63 54 49 52 44 52 50 51 45 43 32 50 59 59 57 52 37 41 45 54 56 48 37 34 33 30 31 33 35 37 38 41 45 40 44 49 57 53 54 51 46 47 57 43
72 62 56 53 46 54 53 56 55 62 52 32 47 57 59 54 39 45 49 54 58 57 48 37 37 34 35 36 36 37 37 42 43 50 47 51 51 54 50 50 59 50 48 34
77 69 62 53 46 56 63 63 52 53 53 44 49 52 53 55 48 45 46 50 58 59 59 45 41 39 37 39 40 43 40 44 48 48 48 46 40 45 49 45 44 44 41 42
79 77 71 59 44 59 68 69 59 51 43 42 50 51 53 49 48 40 42 46 53 53 55 49 48 44 42 39 45 50 52 47 45 48 42 40 41 36 38 43 40 40 35 35
83 82 77 63 40 63 72 67 56 49 51 49 49 43 47 45 49 40 29 36 47 50 54 53 49 50 45 42 45 55 56 60 52 45 41 40 45 35 35 33 33 33 36 30
87 86 81 64 41 59 76 62 54 64 50 49 41 45 49 44 42 46 33 32 41 46 56 55 52 55 50 48 48 53 60 63 55 56 46 49 24 20 20 23 22 23 24 26
89 88 81 60 41 71 76 68 60 65 64 45 49 46 43 37 40 49 40 37 29 51 62 66 60 66 62 54 54 53 54 58 60 57 54 38 30 26 28 30 32 34 35 36
91 86 69 66 62 74 77 75 57 73 70 53 46 51 44 37 39 50 42 37 37 53 68 77 70 67 59 60 53 60 56 58 56 62 55 54 33 30 32 31 37 35 36 40
94 78 61 61 64 76 75 74 57 73 67 65 49 50 47 40 44 47 41 45 52 63 74 79 74 67 59 60 57 60 67 70 63 65 66 54 31 26 23 30 32 36 41 42
87 69 57 58 67 81 75 68 65 67 70 61 58 50 47 39 48 51 44 56 56 67 73 81 73 70 62 60 60 58 55 63 72 72 65 49 28 29 29 29 31 36 42 44
73 64 65 63 74 83 74 67 74 74 77 68 70 61 45 32 40 48 49 40 45 53 79 77 72 68 68 75 74 58 55 55 62 61 47 30 25 24 25 28 34 40 39 37
72 69 66 65 68 79 67 62 68 73 83 69 74 67 55 40 37 48 54 56 47 52 67 74 72 62 69 75 72 70 58 53 54 55 42 33 30 29 28 29 30 32 33 34
70 69 62 58 71 83 76 65 72 75 76 77 57 77 71 51 46 49 51 55 57 61 71 73 68 71 71 74 69 79 68 61 62 57 45 36 35 36 35 34 34 34 36 37
65 61 56 60 80 91 80 65 77 75 80 78 70 84 85 75 64 55 53 58 56 57 75 77 78 78 77 76 74 68 68 62 61 53 42 40 41 43 42 39 38 40 40 42
57 61 87 90 99 85 62 81 82 71 77 90 86 78 87 86 81 64 51 61 53 60 79 91 88 82 79 77 62 55 62 57 51 48 49 47 49 51 49 47 46 46 47 49
83 92 95 99 80 65 60 76 73 72 93 98 81 82 84 84 88 84 66 67 73 73 83 88 89 90 84 74 67 63 63 61 58 55 57 61 57 56 56 56 55 55 55 56
97 99 98 89 82 69 62 74 71 67 83 93 94 93 92 88 93 95 85 83 87 93 88 84 91 93 88 80 70 74 71 68 66 66 62 63 65 63 65 65 63 62 62 61
86 88 84 80 74 61 58 75 85 75 66 72 74 78 94 88 87 91 93 86 86 83 97 96 94 88 83 73 76 84 79 74 73 74 78 79 75 77 78 76 73 69 66 65
79 76 67 71 67 62 88 98 98 98 89 81 85 83 96 91 79 97 96 94 97 97 92 93 90 80 75 82 81 84 82 76 75 77 83 81 86 87 85 82 77 74 73 74
60 62 74 72 73 75 87 98 98 97 96 91 87 97 99 98 96 95 91 93 90 87 83 83 79 71 69 71 72 74 77 78 81 85 83 81 83 88 91 88 82 78 79 83
81 81 74 88 89 91 97 95 99 97 91 91 98 97 95 95 92 90 92 89 85 83 80 83 76 68 69 69 70 72 75 77 77 79 83 86 90 96 92 85 84 87 87 82
85 77 78 89 98 97 95 95 97 91 89 94 90 90 91 91 86 82 81 83 84 80 81 79 72 72 70 69 71 74 77 80 84 89 94 96 95 91 88 89 89 87 83 78
98 93 85 96 94 96 99 97 93 89 89 89 88 88 88 85 85 86 85 88 88 87 84 77 78 82 84 82 84 88 90 91 96 97 97 90 90 91 91 91 90 85 77 76
95 96 90 98 91 97 95 91 86 86 88 87 86 85 82 84 86 87 86 85 87 87 85 86 84 86 90 93 95 97 98 98 97 96 96 95 94 95 93 87 81 81 83 77
97 97 97 98 97 95 94 92 89 84 81 79 76 79 81 87 85 86 88 88 90 90 90 89 88 87 87 89 92 92 92 94 95 96 98 97 95 89 86 87 87 83 79 80
97 99 99 96 94 91 89 89 87 86 87 87 80 78 83 83 86 88 86 85 85 85 85 87 89 89 92 94 97 98 98 98 98 97 97 92 89 90 92 89 84 84 86 86

GFSNW_prec_cthk_069.txt.gz
RH
94 88 70 67 67 76 65 63 54 46 36 48 45 44 39 40 40 45 52 55 59 54 49 49 43 29 26 25 26 30 33 37 40 36 41 44 45 45 48 57 50 54 50 42
97 97 89 74 70 77 70 68 60 57 45 50 41 37 44 42 42 40 48 53 54 59 56 49 45 32 27 29 30 30 35 37 38 35 36 39 45 42 44 46 49 51 56 43
98 98 99 86 74 78 78 77 74 75 66 30 33 45 41 49 44 39 48 46 55 63 59 53 44 38 32 32 33 34 35 38 36 36 32 36 40 36 37 42 54 52 51 46
98 98 98 95 80 80 83 86 74 64 63 47 32 36 39 43 48 41 46 49 48 59 60 59 51 44 42 39 38 40 40 41 40 37 36 38 37 36 44 47 46 49 42 40
98 98 99 99 87 84 88 84 75 60 59 41 42 44 43 42 47 38 43 47 40 45 56 58 58 54 54 52 46 42 44 45 44 43 42 43 44 39 44 48 45 40 38 30
98 98 99 99 90 77 77 71 64 61 46 55 50 35 38 43 44 39 39 41 45 39 42 65 67 62 57 58 52 50 48 49 48 48 48 50 52 44 40 39 39 37 35 25
99 98 98 98 95 69 69 67 67 67 54 59 48 40 42 42 43 39 42 39 47 44 37 57 65 61 60 59 59 56 55 52 52 58 56 64 38 42 39 38 33 30 23 21
98 98 98 98 98 83 76 70 66 65 62 52 48 52 44 49 45 38 37 35 39 45 47 51 65 68 65 63 65 62 59 56 58 61 55 49 39 40 42 42 24 24 22 20
98 98 97 98 99 90 79 73 69 77 69 59 50 58 55 48 54 45 39 41 41 56 62 55 64 67 75 72 71 64 62 59 60 64 60 56 39 39 38 37 28 30 23 23
99 98 98 98 98 88 77 72 73 76 74 61 66 66 58 52 51 41 38 38 46 55 60 62 59 65 62 85 84 75 67 64 60 65 63 52 41 38 38 45 35 24 22 21
98 98 98 99 98 91 78 75 72 69 72 67 66 64 69 59 53 42 37 39 44 56 68 65 60 61 60 67 79 75 69 67 66 64 65 56 46 47 43 37 35 27 24 24
98 98 98 98 97 94 83 79 72 71 76 67 95 76 58 57 52 42 36 25 28 43 56 65 59 60 60 56 62 78 76 65 61 56 53 48 46 44 39 38 42 30 25 25
98 98 98 98 97 95 87 80 73 74 80 63 94 90 76 63 53 38 33 28 28 32 39 51 54 54 43 60 60 59 67 72 66 61 52 51 52 49 43 45 47 39 30 28
98 98 98 98 98 95 86 84 81 77 87 87 75 96 91 78 63 36 28 30 30 35 37 45 52 57 47 53 50 58 61 63 62 63 61 55 62 65 56 54 52 42 34 32
98 98 98 98 98 98 94 93 82 68 84 97 92 95 93 83 74 52 42 33 42 47 60 54 53 56 58 55 56 60 61 62 63 66 61 60 58 67 68 61 55 42 40 40
98 98 98 98 97 92 89 81 80 81 95 98 97 94 95 89 79 70 48 43 48 58 59 67 66 58 56 62 65 61 62 66 64 61 62 67 63 66 61 62 59 50 50 49
98 98 96 93 84 71 76 87 75 78 97 98 99 88 78 82 85 83 68 54 54 54 58 68 73 72 63 63 61 59 64 67 69 68 69 68 68 64 62 64 62 60 60 61
94 94 92 84 76 80 95 89 74 73 94 98 98 99 91 89 79 80 75 69 62 60 60 65 72 73 70 71 62 63 62 62 67 71 74 71 72 70 69 69 66 68 71 73
83 83 82 79 81 93 94 89 85 91 94 94 98 95 97 97 96 81 78 76 72 59 59 63 69 69 74 68 59 62 64 64 66 76 75 79 75 74 74 74 76 76 78 81
74 71 77 81 75 96 97 99 88 85 82 78 73 83 94 99 99 99 98 86 81 73 67 65 70 69 65 64 62 61 63 70 72 74 77 77 79 80 82 82 82 83 88 91
81 81 78 68 72 87 92 94 98 98 96 95 86 78 90 84 96 97 98 98 98 95 90 84 80 77 71 71 76 75 76 81 82 81 78 79 82 84 84 90 89 91 96 93
87 87 88 87 86 88 94 98 88 90 85 89 83 83 86 77 89 92 94 96 99 98 92 95 91 85 84 87 87 84 84 83 81 80 79 79 78 79 81 84 90 92 92 97
90 95 97 90 85 87 96 90 78 79 73 79 88 89 79 75 83 88 96 97 97 93 95 95 94 92 91 90 86 82 83 83 81 84 84 85 85 86 86 86 88 95 95 95
77 81 82 87 92 98 77 64 61 67 78 82 82 80 79 83 89 95 98 98 99 97 94 96 94 92 90 85 81 81 81 83 84 84 85 86 85 84 88 94 96 97 97 98
97 84 78 78 80 82 76 70 64 65 73 76 77 79 86 97 98 98 97 96 96 93 89 84 83 82 81 82 85 87 89 88 88 91 91 92 95 97 97 97 97 97 95 90
97 94 97 89 84 80 80 85 88 85 86 83 86 94 97 98 96 92 94 94 93 90 86 83 85 86 88 89 91 92 93 95 95 95 96 98 98 97 97 97 95 89 91 96
97 98 97 91 96 98 98 96 96 96 97 97 94 96 97 94 94 95 93 91 90 89 90 88 86 86 87 89 90 90 90 92 94 96 97 98 97 96 94 92 94 97 92 89

GFSNW_prec_cthk_072.txt.gz
RH
91 93 97 98 98 88 80 71 68 55 49 57 60 42 29 33 33 43 44 48 60 55 55 50 42 33 26 26 26 28 29 32 35 35 39 40 46 47 51 49 53 50 48 40
93 96 98 98 98 96 83 73 72 70 66 54 55 39 39 35 38 34 43 44 44 56 58 51 51 45 36 31 30 28 30 32 39 37 36 37 40 41 46 47 47 47 50 39
98 98 98 98 98 99 93 81 80 82 78 50 32 50 45 42 40 40 40 44 41 55 61 59 57 53 50 37 31 32 31 33 34 36 34 35 37 35 38 42 49 40 40 36
98 98 98 98 98 99 98 85 71 51 65 60 46 42 43 45 45 38 40 45 43 48 59 64 61 61 59 48 39 37 38 38 36 33 33 37 34 34 34 36 34 36 34 40
98 98 98 98 98 99 98 86 71 60 52 44 44 49 52 44 42 39 32 37 40 42 55 64 66 68 61 58 49 44 42 43 39 37 36 37 36 33 34 37 38 39 41 37
99 98 98 98 98 98 92 82 74 62 53 56 61 49 42 50 46 41 35 35 33 37 41 76 77 72 69 65 60 54 51 47 44 42 42 43 46 35 36 39 38 36 36 33
93 98 99 98 99 94 83 81 77 67 57 67 58 47 44 42 50 50 46 44 40 42 38 42 62 69 70 63 59 60 59 51 49 49 55 67 31 34 38 43 38 34 32 29
79 98 99 98 98 97 93 86 80 63 64 52 45 53 48 46 51 58 49 45 36 36 37 46 46 60 59 62 60 64 62 61 58 67 52 41 36 33 37 43 38 38 34 27
82 85 98 98 98 98 96 90 88 72 66 54 45 56 60 52 48 60 57 59 42 40 44 53 43 51 54 68 74 70 67 66 64 65 67 64 33 32 36 41 35 37 35 29
93 79 93 98 98 98 96 94 90 77 64 69 70 62 76 60 51 51 64 59 46 48 52 66 61 48 46 61 79 81 76 73 76 66 69 48 38 38 41 46 32 36 32 26
88 86 86 98 97 99 97 90 88 72 72 80 79 78 75 80 65 55 51 69 48 49 55 62 59 65 55 49 56 71 72 76 77 67 77 69 39 42 41 39 42 37 36 34
88 80 86 96 98 99 98 95 90 81 83 81 80 74 88 92 76 66 69 36 49 44 47 56 49 63 65 45 49 48 68 66 69 64 58 51 49 44 42 44 45 41 41 43
89 70 84 98 99 99 97 97 90 87 85 80 80 64 78 89 91 67 67 45 37 34 35 43 41 50 55 60 51 46 48 60 65 71 58 56 56 49 48 49 52 48 47 47
68 74 96 99 99 99 97 95 89 80 79 77 67 71 70 78 95 79 63 54 39 35 32 33 39 44 45 51 42 44 41 50 49 54 62 62 58 56 54 56 56 58 54 50
94 98 98 99 99 98 98 94 87 81 75 74 69 84 85 78 68 78 63 56 45 41 37 42 42 38 44 46 48 44 42 43 47 49 49 60 61 60 62 58 58 64 63 54
98 98 98 98 97 96 97 97 88 80 73 77 94 90 79 91 76 65 56 47 48 57 54 50 40 39 40 52 49 42 43 42 46 47 54 64 67 61 67 63 66 66 61 60
98 98 98 96 94 95 94 84 76 72 71 69 86 85 90 91 87 81 64 51 44 53 56 56 61 52 44 52 48 45 51 47 49 50 56 64 68 66 64 65 68 69 65 61
98 98 98 99 98 96 93 85 78 71 65 72 82 93 99 97 97 94 72 63 60 53 67 70 65 66 60 60 45 46 51 53 53 53 59 63 64 63 63 68 71 70 71 68
98 98 98 98 98 95 94 81 74 79 84 95 89 89 99 98 96 91 87 75 72 66 62 62 59 61 64 55 53 56 58 57 60 65 63 63 67 68 71 74 74 75 75 76
92 90 94 94 78 72 89 85 88 94 95 95 90 87 98 99 99 99 91 85 75 66 63 63 64 57 57 60 58 62 63 66 67 69 68 68 74 78 79 80 79 81 82 85
89 85 76 77 80 92 95 91 92 93 86 86 89 93 98 99 99 95 90 84 84 81 76 66 67 60 56 56 56 57 65 69 73 73 75 79 82 84 82 84 87 90 93 94
73 65 79 90 89 92 92 89 85 91 83 91 91 95 97 98 99 96 91 91 83 84 78 78 71 65 60 54 53 60 70 76 78 81 86 89 86 84 85 87 89 91 90 92
81 61 81 88 79 75 78 89 81 82 82 87 95 98 96 90 96 98 98 98 99 97 95 87 89 91 92 90 86 86 87 86 90 91 91 91 90 88 89 89 93 95 95 90
91 84 75 71 77 75 71 72 66 71 81 86 91 91 91 93 87 94 94 97 98 98 98 97 97 96 95 96 96 94 95 94 91 91 92 90 89 90 91 92 93 93 92 92
85 80 78 83 90 89 84 76 74 78 81 82 91 84 82 89 90 91 97 98 97 97 95 96 97 95 96 96 95 95 94 90 89 88 88 90 91 91 90 91 94 96 97 96
86 85 88 94 95 97 92 82 80 75 82 88 87 87 88 93 95 98 98 96 96 94 94 94 93 90 88 87 87 88 90 92 93 93 93 95 96 95 94 96 97 97 96 96
78 76 82 85 86 84 80 78 80 83 82 80 80 90 92 97 96 96 96 94 94 93 92 92 93 92 91 91 93 94 95 96 96 96 97 95 94 94 95 96 97 97 96 94

GFSNW_prec_cthk_075.txt.gz
RH
90 91 94 93 96 96 98 97 89 71 63 69 59 58 30 38 36 34 35 43 49 41 56 67 62 54 47 36 36 35 32 38 45 40 33 33 47 50 48 52 50 50 49 45
88 92 96 95 97 98 99 96 92 90 70 69 58 33 26 44 50 38 50 55 52 61 56 70 63 57 53 43 38 40 35 41 43 48 39 38 37 43 52 52 51 51 65 52
90 91 94 98 99 99 99 98 96 94 84 64 47 30 37 42 36 51 47 58 55 48 56 69 64 70 60 48 34 36 38 39 41 38 38 43 37 35 40 48 56 48 45 45
87 92 93 98 98 99 99 96 76 70 76 65 52 49 39 40 37 41 59 53 55 53 49 58 65 70 67 61 44 43 43 45 42 34 42 42 40 39 35 38 42 48 43 43
72 92 94 95 98 99 99 93 73 72 70 67 63 52 53 49 35 41 41 57 53 56 49 53 53 64 72 68 62 46 47 51 42 41 40 43 41 36 35 39 40 35 37 40
63 65 89 97 98 99 98 86 75 77 71 77 72 51 45 44 42 44 53 54 59 57 55 68 70 74 77 79 74 64 56 55 50 49 44 46 51 32 35 35 36 36 39 40
87 68 81 99 99 99 94 79 80 82 77 69 61 55 48 43 46 46 58 58 49 53 58 61 62 74 67 74 72 73 68 62 56 60 57 63 42 37 35 36 36 39 43 38
98 87 78 98 99 99 97 88 84 80 82 72 67 60 52 57 57 64 55 53 63 58 69 66 55 66 83 78 77 68 67 68 64 68 57 45 38 36 34 36 35 35 41 38
97 97 85 98 99 98 99 95 90 85 83 63 71 64 71 60 54 64 60 50 67 59 71 59 53 43 47 52 74 73 63 69 75 69 64 62 40 36 36 39 41 34 45 44
96 98 87 96 99 98 99 96 93 87 78 81 80 78 78 65 66 60 54 57 63 77 64 72 60 43 41 46 64 92 82 79 79 75 78 54 42 39 38 48 31 47 42 38
94 97 87 90 98 98 98 91 93 88 86 86 83 75 74 75 73 75 56 70 67 72 63 70 56 41 40 47 44 55 84 83 82 74 88 80 52 48 44 39 43 45 42 40
92 94 81 85 99 98 99 97 96 92 88 92 91 75 78 65 68 77 74 44 50 48 64 65 58 53 55 52 52 44 67 73 77 71 69 62 58 53 49 48 47 48 45 43
89 98 83 88 99 98 96 97 97 97 97 97 87 74 73 70 76 87 84 77 58 52 51 68 68 60 46 62 54 46 46 47 58 62 63 65 66 61 57 53 50 54 51 51
92 98 83 92 99 97 97 97 96 95 90 91 77 75 75 71 79 86 83 92 80 79 76 69 64 59 38 46 43 42 46 44 45 45 45 53 66 61 63 60 58 58 55 52
99 96 88 99 98 99 99 98 96 95 87 79 77 80 75 69 82 87 84 87 74 74 71 65 67 52 40 48 46 44 47 48 54 53 41 45 50 55 60 59 60 59 59 59
96 90 91 98 98 95 94 98 98 95 88 84 81 79 75 66 82 90 92 91 80 81 59 65 57 44 38 48 46 35 33 42 50 49 50 48 54 55 62 66 68 67 63 62
86 95 97 97 96 96 96 92 84 86 85 84 79 78 83 62 75 86 87 86 81 80 66 63 58 40 41 47 45 28 37 42 48 54 46 44 48 53 57 65 69 69 67 66
94 97 98 99 98 98 97 88 84 83 84 80 82 88 92 83 88 82 75 76 82 90 82 75 70 67 60 50 35 28 31 46 49 54 56 56 56 56 61 67 66 65 64 65
99 98 97 97 98 97 98 93 82 84 80 73 79 88 97 99 92 77 76 84 87 81 77 77 74 71 68 58 47 39 39 38 44 51 51 51 52 56 57 61 65 66 68 71
97 99 98 98 98 95 95 96 87 78 79 79 86 87 96 96 97 89 91 90 86 79 65 66 68 71 64 64 51 48 49 47 56 61 59 59 60 66 67 68 68 77 81 85
95 91 92 92 97 96 92 92 86 83 77 76 73 87 91 97 97 99 88 94 96 85 66 63 54 53 61 64 54 56 52 54 60 66 68 69 71 72 72 75 83 87 89 89
88 85 88 92 93 90 82 79 83 77 71 74 83 90 90 93 94 97 99 94 94 87 71 71 63 61 57 59 58 52 53 56 56 59 65 72 75 79 85 92 94 96 95 95
89 81 81 85 85 77 76 79 72 81 76 87 88 91 97 96 94 95 98 99 98 89 86 77 69 64 65 62 55 53 53 53 53 57 69 81 83 90 97 97 97 96 95 94
80 83 82 88 76 70 76 80 79 77 77 84 85 94 97 98 98 98 98 92 98 96 85 76 75 74 70 71 78 88 92 90 85 85 90 92 94 98 99 98 98 99 95 94
86 88 87 82 81 90 96 93 88 84 89 90 94 96 98 99 98 97 91 97 97 93 90 90 91 86 85 94 98 98 98 99 99 99 98 98 98 98 98 96 95 94 94 93
88 82 81 83 88 97 88 86 87 85 90 94 97 99 98 97 98 96 97 97 95 96 97 97 98 96 97 98 98 98 98 98 98 98 98 97 96 95 95 96 96 96 95 96
79 82 83 83 86 84 81 86 87 90 91 92 91 90 98 96 94 96 96 96 97 97 98 97 96 95 95 95 95 95 93 92 92 95 97 97 97 97 96 95 94 94 94 94

GFSNW_prec_cthk_078.txt.gz
RH
92 98 98 98 98 99 98 98 86 80 90 91 69 52 40 25 22 25 44 59 52 45 51 55 69 47 46 55 57 54 46 51 49 49 41 37 37 37 39 48 53 61 59 56
96 97 97 98 98 98 99 96 92 89 89 80 70 56 43 40 42 46 38 61 53 54 62 58 64 63 50 55 57 54 48 51 58 50 50 46 36 41 48 48 45 47 62 53
94 95 94 95 98 99 99 98 93 90 87 73 72 71 57 47 38 42 33 54 61 65 65 76 64 70 54 59 60 58 56 53 52 52 53 42 41 39 44 53 61 54 52 51
97 98 98 98 97 99 99 97 83 76 79 77 79 70 66 49 40 32 37 48 58 74 74 81 70 73 65 64 63 58 58 65 53 49 43 47 42 39 34 33 38 44 42 48
95 94 94 95 99 99 99 96 81 79 80 83 84 75 65 61 43 39 28 44 53 63 88 65 62 68 77 75 70 67 59 63 62 57 45 42 48 47 42 36 33 36 43 40
93 89 87 85 94 99 98 93 83 89 82 85 75 65 73 63 57 45 38 27 32 62 71 81 76 64 57 82 78 72 67 63 52 56 52 46 50 47 43 40 39 39 41 41
76 75 75 71 79 98 99 87 89 96 91 74 73 75 72 70 60 51 53 43 31 45 73 89 83 81 70 59 74 76 68 74 64 73 63 61 46 39 41 42 36 37 40 40
68 73 71 65 64 96 99 95 96 94 90 79 77 77 77 77 66 54 49 48 33 31 57 79 94 84 81 62 65 74 81 73 89 72 69 53 45 45 44 39 35 35 34 36
77 82 83 70 69 84 99 97 96 93 91 84 80 81 85 73 65 56 41 53 60 46 51 83 87 94 68 70 71 67 74 79 79 84 75 78 53 44 40 39 44 31 36 40
92 88 92 84 91 79 93 98 98 96 92 85 83 85 80 80 73 49 47 61 75 71 56 85 96 87 54 46 63 71 80 89 82 77 82 64 52 46 42 50 45 36 48 48
98 95 92 92 96 89 94 94 97 97 95 88 87 91 88 79 74 62 56 67 82 78 72 77 78 84 60 46 39 62 76 95 89 80 88 76 61 56 52 43 40 45 51 46
95 95 97 95 98 93 96 99 96 97 96 96 90 89 94 84 77 69 61 53 56 61 65 72 66 82 67 40 46 53 72 67 83 74 68 67 60 63 60 56 57 54 59 56
90 88 97 99 98 94 98 96 96 99 99 97 97 89 87 80 69 61 68 61 70 67 55 55 59 74 52 57 43 42 49 61 69 72 65 68 76 70 67 62 58 56 57 54
75 86 97 98 96 98 99 98 98 98 97 97 89 84 85 80 62 61 56 71 76 74 74 77 84 72 50 51 52 47 49 51 57 58 56 56 62 62 67 67 65 61 57 57
78 94 98 98 96 97 98 98 96 93 90 92 90 84 83 74 63 60 61 66 74 93 92 65 55 60 62 59 53 44 42 47 60 63 54 48 47 48 58 56 52 59 61 64
93 98 93 96 98 98 99 99 99 97 96 90 89 86 81 70 65 66 63 76 76 85 98 74 80 68 68 70 60 49 48 44 48 54 59 59 53 48 50 55 60 65 64 67
98 92 92 99 99 99 97 88 82 90 92 88 89 81 71 68 70 63 72 78 91 95 97 94 75 62 59 65 58 46 40 38 35 41 41 49 58 54 47 54 56 63 66 68
94 96 99 99 98 98 97 92 89 93 94 90 84 78 80 75 72 69 68 76 87 94 96 86 71 71 62 58 45 45 39 36 48 50 53 52 55 58 56 50 52 58 62 63
94 97 98 98 98 98 96 96 95 93 91 85 78 78 84 95 93 78 78 79 89 84 90 88 81 75 74 60 51 44 33 31 26 40 51 51 54 55 56 56 56 58 61 66
97 98 97 98 98 94 94 98 96 94 91 86 77 76 85 93 96 96 89 90 94 98 81 79 89 79 69 73 68 66 58 50 46 45 46 47 48 54 54 55 58 63 67 70
96 95 95 97 97 95 97 95 90 84 88 76 74 75 82 87 88 90 94 94 92 94 79 93 91 79 81 85 76 71 68 61 56 52 52 57 65 68 68 69 68 69 73 75
88 87 92 95 95 94 94 93 91 83 75 68 71 79 84 94 93 97 94 89 88 88 76 86 79 83 82 83 79 71 66 60 55 53 54 57 59 67 71 73 75 80 84 94
85 83 92 97 94 90 89 83 77 80 74 78 82 94 97 98 98 96 92 84 86 94 91 83 74 72 74 68 65 65 62 57 57 58 59 61 59 58 64 73 81 87 98 98
86 90 91 90 85 88 86 80 70 67 75 77 91 97 98 98 96 97 98 86 84 98 95 89 76 68 70 70 64 59 57 59 59 58 60 60 59 59 64 80 92 95 98 97
86 85 84 82 80 77 76 82 73 76 90 96 98 98 98 98 98 98 96 99 94 96 87 80 79 78 72 67 66 67 69 70 75 80 85 90 89 90 96 98 97 97 97 96
70 68 72 73 80 82 79 93 89 91 92 98 98 98 98 98 98 98 95 87 90 90 92 87 84 80 80 83 81 79 86 94 97 97 96 97 97 97 97 96 96 96 96 96
75 73 76 84 86 88 92 90 91 87 92 97 98 98 99 99 97 96 92 90 90 92 95 96 97 97 97 92 90 96 97 97 97 97 97 97 97 97 96 95 96 97 96 96